Regional Weather Roundup
Issued by NWS Grand Forks, ND

Home | Current Version | Previous Version | Graphics & Text | Print | Product List | Glossary On
Versions: 1 2 3 4 5 6 7 8 9 10 11 12 13 14 15 16 17 18 19 20 21 22 23 24 25 26 27 28 29 30 31 32 33 34 35 36 37 38 39 40 41 42 43 44 45 46 47 48 49 50
000
ASUS43 KFGF 240110
RWRFGF
PRAIRIE TO PINES  WEATHER ROUNDUP
NATIONAL WEATHER SERVICE EASTERN NORTH DAKOTA/GRAND FORKS ND
800 PM CDT FRI JUN 23 2017

 **SATELLITE DATA USED TO AUGMENT SKY COVER AT AUTOMATED STATIONS**
 *****  WEATHER ACROSS EASTERN NORTH DAKOTA  *****

CITY           SKY/WX    TMP DP  RH WIND       PRES   REMARKS
GRAND FORKS    PTSUNNY   60  42  51 NW16G24   29.95R
GRAND FRKS AFB CLOUDY    59  41  49 N17G25    29.96R
DEVILS LAKE    CLOUDY    56  38  50 NW20      30.02R
FARGO          CLOUDY    65  41  41 NW21G30   29.95R
WAHPETON ARPT  MOCLDY    63  36  36 NW16G23   29.96R
$$

 ***** WEATHER ACROSS CENTRAL AND WESTERN NORTH DAKOTA  *****

CITY           SKY/WX    TMP DP  RH WIND       PRES   REMARKS
BISMARCK       FAIR      65  35  33 NW16G33   30.09R
MINOT          FAIR      61  35  37 NW17G28   30.06R
JAMESTOWN      CLOUDY    61  36  39 NW23G33   30.01R
MINOT AFB      FAIR      62  34  34 NW22G30   30.05R
GARRISON         N/A     61  34  36 NW21G32   30.09R
WILLISTON      CLOUDY    65  33  30 NW13      30.12S
DICKINSON      FAIR      63  27  25 NW20      30.12R
HETTINGER      FAIR      65  28  24 NW22G29   30.15R
$$

 *****  OTHER AIRPORT OBSERVATIONS IN OUR AREA  *****

CITY           SKY/WX    TMP DP  RH WIND       PRES   REMARKS
WALHALLA       NOT AVBL
GRAFTON AIRPOR FAIR      57  39  51 NW21G28   29.97R
VALLEY CITY AR MOCLDY    59  39  47 NW15      30.01S
CANDO          NOT AVBL
CAVALIER APRT  CLOUDY    57  41  54 W13G21    29.95R
GWINNER        CLOUDY    63  39  42 NW16G24   30.00R
ROLLA            N/A     54  39  58 NW18G25   30.02R
 ***** THE ABOVE OBSERVATIONS ARE NON NWS ARE NOT QUALITY
       CONTROLLED AND MAY MIS-REPORT RAIN FOR SNOW...
$$

  *****  WEATHER ACROSS NORTHERN MINNESOTA  *****

CITY           SKY/WX    TMP DP  RH WIND       PRES   REMARKS
FLAG ISLAND    CLOUDY    55  50  82 NW21G26   29.85R
WARROAD        CLOUDY    55  48  76 NW13G18   29.89R
ROSEAU           N/A     57  48  72 NW13G21   29.89S
HALLOCK        PTSUNNY   61  43  51 NW17G24   29.92R
THF RVR FALLS  CLOUDY    58  45  62 NW12      29.93R
BAUDETTE       CLOUDY    55  50  83 W14G23    29.86R
WASKISH        CLOUDY    55  48  76 W17G25    29.88R
CROOKSTON      PTSUNNY   61  41  48 NW22G29   29.94R
STEPHEN NDAWN    N/A     61  39  44 NW17        N/A
GREENBUSH NDAW   N/A     57  46  67 NW10        N/A
$$
  *****  WEATHER ACROSS CENTRAL AND WEST MINNESOTA  *****

CITY           SKY/WX    TMP DP  RH WIND       PRES   REMARKS
FOSSTON        CLOUDY    57  46  67 NW10      29.93R
BEMIDJI        FAIR      56  47  70 NW16      29.90S
PARK RAPIDS    PTSUNNY   62  45  53 NW16      29.90R
ELBOW LAKE     MOCLDY    62  44  52 W12       29.95S
WADENA         FAIR      61  45  55 NW13G22   29.92R
DETROIT LAKES  FAIR      61  39  44 NW14G26   29.94R
MOORHEAD       FAIR      63  39  42 NW17G24   29.95R
FERGUS FALLS   FAIR      63  45  51 NW10      29.92R
MORRIS MN      PTSUNNY   64  43  45 NW16      29.95R
STAPLES        CLOUDY    61  45  55 NW14      29.91R
$$
  *****  WEATHER ELSEWHERE ACROSS MINNESOTA  *****

CITY           SKY/WX    TMP DP  RH WIND       PRES   REMARKS
DULUTH         FAIR      60  53  77 NW14      29.80R
INTRNTL FALLS  CLOUDY    58  51  78 W10       29.81R
ELY            CLOUDY    61  52  72 W13G21    29.77R
CLOQUET        FAIR      59  52  77 NW9       29.82R
WHEATON        FAIR      64  37  36 NW14G24   29.98R
BRAINERD       CLOUDY    61  48  62 NW16G23   29.89R
HIBBING        CLOUDY    58  52  80 NW13G25   29.82R
ALEXANDRIA     PTSUNNY   61  45  55 NW13      29.95R
SAINT CLOUD    FAIR      63  51  65 NW8       29.89R
MINNEAPOLIS    MOCLDY    67  49  52 NW18G28   29.86R
$$

  *****  WEATHER ACROSS SOUTH DAKOTA  *****

CITY           SKY/WX    TMP DP  RH WIND       PRES   REMARKS
SIOUX FALLS    FAIR      66  41  40 NW14G26   30.01R
BROOKINGS      PTSUNNY   63  42  46 NW12      30.02R
WATERTOWN      FAIR      61  39  44 NW17G26   30.01R
HURON          FAIR      66  37  34 NW17      30.05R
SISSETON         N/A     65  40  39 NW14      29.97R
ABERDEEN       PTSUNNY   65  39  38 N15G22    30.04R
MITCHELL       FAIR      69  37  30 N13G23    30.05R
PIERRE         FAIR      68  32  26 NW14G24   30.09R
MOBRIDGE       FAIR      68  31  25 NW20G26   30.06R
RAPID CITY     FAIR      67  27  22 N22G31    30.18R
$$

  *****  SOME WEATHER IN NEARBY STATES *****

CITY           SKY/WX    TMP DP  RH WIND       PRES   REMARKS
GLASGOW MT     PTSUNNY   68  30  24 NW23      30.17R
GREAT FALLS MT CLOUDY    65  36  34 E7        30.26R
CHEYENNE WY    PTSUNNY   62  42  47 SW3       30.27R
SCOTTSBLUFF NE CLOUDY    72  29  20 N16G26    30.19R
OMAHA NE       MOCLDY    71  48  43 NW13      30.01R
DES MOINES IA  FAIR      71  50  47 NW13      29.95R
DAVENPORT IA   FAIR      70  55  59 NW13      29.87R
CHICAGO IL     FAIR      76  51  41 NW17G29   29.74R
EAU CLAIRE WI  MOCLDY    66  51  58 W10       29.81R
LA CROSSE WI   MOCLDY    73  54  51 W12       29.81R
$$

  *****  SOME NATIONAL WEATHER *****

CITY           SKY/WX    TMP DP  RH WIND       PRES   REMARKS
LA GUARDIA NY  LGT RAIN  77  74  90 S9        29.63S
RALEIGH NC     FAIR      85  71  63 SW14      29.86R HX  90
ATLANTA GA     FAIR      82  70  66 S6        29.94R THUNDER
NEW ORLEANS LA FAIR      83  78  85 S10       29.92R HX  93
OKLAHOMA CITY  MOCLDY    83  53  35 NE21      29.96R
ALBUQUERQUE NM FAIR      90  51  26 E28G33    30.02R
SALT LAKE CITY FAIR      84  29  13 VRB7        N/A
LOS ANGELES CA CLOUDY    65  61  87 W16       29.90S
BOISE ID       FAIR      83  27  13 NW14      30.10F
SEATTLE WA     FAIR      80  50  34 N13       30.15F
$$

*** WEATHER ACROSS MANITOBA...SASKATCHEWAN AND ONTARIO ***
                ***ONTARIO***

CITY           SKY/WX    TMP DP  RH WIND       PRES   REMARKS
GERALDTON      MOCLDY    59  50  72 NW6       29.65R
THUNDER BAY    PTCLDY    64  52  63 N5        29.67R
SIOUX LOOKOUT  PTSUNNY   59  55  88 N3        29.73R
TORONTO        MOCLDY    73  63  68 NW14      29.55S
BIG TROUT LK   MOSUNNY   61  50  67 N10G20    29.75R
PICKLE LAKE    MOCLDY    63  46  55 NE14      29.71R
DRYDEN         LGT RAIN  55  54  94 W8        29.77R
KENORA         PTSUNNY   55  50  82 W14G21    29.83R
$$
                *** MANITOBA***

CITY           SKY/WX    TMP DP  RH WIND       PRES   REMARKS
BRANDON        PTSUNNY   54  41  62 NW14G25   29.99R
DAUPHIN        CLOUDY    54  48  82 NW12      29.97R
ISLAND LAKE    MOSUNNY   57  46  67 N10G21    29.87R
PILOT MOUND      N/A     55  41  58 NW13G21     N/A
THE PAS        LGT RAIN  48  45  87 NW14G21   30.04R
THOMPSON       PTSUNNY   57  37  47 NE9G17    29.98R
WINNIPEG       PTSUNNY   55  48  76 NW9G17    29.91R
LYNN LAKE      CLOUDY    54  36  50 N10       30.08R
CHURCHILL      MOSUNNY   50  37  62 NE7       30.02S
GILLAM         MOSUNNY   55  37  50 NE13G20   29.99R
$$
                ***SASKATCHEWAN***

CITY           SKY/WX    TMP DP  RH WIND       PRES   REMARKS
ESTEVAN        PTSUNNY   61  37  41 NW14G22   30.08R
KINDERSLEY     MOSUNNY   64  41  42 N13G23    30.16R
LLOYDMINSTER   MOSUNNY   63  39  42 N7        30.16R
PRINCE ALBERT  PTSUNNY   52  43  71 NE13G20   30.18R
REGINA         PTSUNNY   52  36  54 N18       30.13R
YORKTON        MOSUNNY   52  43  71 NW17G24   30.04R
N. BATTLEFORD  SUNNY     64  36  34 N14G21    30.15S
LA RONGE       PTSUNNY   54  46  76 SE5       30.14R
SASKATOON      MOSUNNY   59  41  51 NE12G18   30.15R
SWIFT CURRENT  CLOUDY    61  41  48 NW10G17   30.15S
$$
NOTE: THESE ARE AUTOMATED STATIONS WITH LIMITED QUALITY CONTROL
      "FAIR" INDICATES FEW OR NO CLOUDS BELOW 12,000 FEET WITH NO
      SIGNIFICANT WEATHER AND/OR OBSTRUCTIONS TO VISIBILITY.
      SKY/WX - SKY CONDITION AND SIGNIFICANT WEATHER.
      TMP - AIR TEMPERATURE.    DP   - DEWPOINT TEMPERATURE.
      RH  - RELATIVE HUMIDITY.  PRES - PRESSURE.
      HX  - HEAT INDEX.         WCI  - WIND CHILL INDEX.
$



USA.gov is the U.S. government's official web portal to all federal, state and local government web resources and services.